STARLINK-5193 (54095 NORAD) Tracking and Keplerian Element Data

This shows tracking and keplerian element data for the satellite.

Feedback or suggestion? Click here.




ElementValue
Catalog54095
NameSTARLINK-5193
Epoch Orbit549
Epoch Day325.33334491
Epoch Year2022
RAAN350.8803
Inclination53.2149
Eccentricity0.0004412
Argument of Perigee5.4298
Mean Anonmoly347.7937
Mean Motion15.73176401
Decay Rate0.00023382
L11 54095U 22136AW 22325.33334491 .00023382 00000+0 17067-3 0 9992
L22 54095 53.2149 350.8803 0004412 5.4298 347.7937 15.73176401 5498



Live tracking and technical data element details for STARLINK-5193 (NORAD 54095). STARLINK-5193 can be tracked NOW for your location showing map with azimuth and elevation plus other details from your city location.







IsCatalogInMostPopularTable: catalog: 54095, numindb: 1
Update: records affected: 1



GetName: 54095 STARLINK-5193

Hit Count: updated at: Mon, 28 Nov 2022 21:27:17 GMT